TimeEST,TemperatureF,Dew PointF,Humidity,Sea Level PressureIn,VisibilityMPH,Wind Direction,Wind SpeedMPH,Gust SpeedMPH,PrecipitationIn,Events,Conditions,WindDirDegrees,DateUTC
12:15 AM,35.6,35.6,100,29.77,1.5,NE,3.5,-,0.01,Snow,Light Snow,40,2013-03-06 05:15:00
12:35 AM,35.6,35.6,100,29.76,1.5,NE,4.6,-,0.03,Snow,Light Snow,40,2013-03-06 05:35:00
12:55 AM,35.6,35.6,100,29.73,1.5,NE,3.5,-,0.04,Snow,Light Snow,40,2013-03-06 05:55:00
1:15 AM,35.6,35.6,100,29.73,1.2,NE,3.5,-,0.02,Snow,Light Snow,40,2013-03-06 06:15:00
1:35 AM,35.6,35.6,100,29.73,1.2,Calm,Calm,-,0.04,Snow,Snow,0,2013-03-06 06:35:00
1:55 AM,35.6,35.6,100,29.72,1.0,Calm,Calm,-,0.06,Snow,Snow,0,2013-03-06 06:55:00
2:15 AM,35.6,35.6,100,29.70,1.0,NNE,3.5,-,0.02,Snow,Snow,30,2013-03-06 07:15:00
2:35 AM,35.6,35.6,100,29.66,1.5,NNE,5.8,-,0.04,Snow,Light Snow,20,2013-03-06 07:35:00
2:55 AM,35.6,35.6,100,29.65,2.0,NE,5.8,-,0.04,Snow,Light Snow,40,2013-03-06 07:55:00
3:15 AM,35.6,35.6,100,29.64,1.8,NNE,4.6,-,0.02,Snow,Light Snow,30,2013-03-06 08:15:00
3:35 AM,35.6,35.6,100,29.64,1.8,NNE,5.8,-,0.02,Snow,Light Snow,30,2013-03-06 08:35:00
3:55 AM,35.6,35.6,100,29.63,2.5,NNE,6.9,-,0.04,Snow,Light Snow,20,2013-03-06 08:55:00
4:15 AM,35.6,35.6,100,29.62,1.8,North,8.1,-,0.02,Snow,Light Snow,360,2013-03-06 09:15:00
4:35 AM,35.6,35.6,100,29.62,2.5,North,6.9,-,0.03,Snow,Light Snow,360,2013-03-06 09:35:00
4:55 AM,35.6,35.6,100,29.61,1.8,North,8.1,-,0.04,Snow,Light Snow,360,2013-03-06 09:55:00
5:15 AM,35.6,35.6,100,29.61,1.2,North,8.1,-,0.01,Snow,Light Snow,360,2013-03-06 10:15:00
5:35 AM,35.6,35.6,100,29.60,1.5,North,9.2,-,0.02,Snow,Light Snow,360,2013-03-06 10:35:00
5:55 AM,35.6,35.6,100,29.59,2.0,North,9.2,-,0.04,,Overcast,360,2013-03-06 10:55:00
6:15 AM,35.6,35.6,100,29.59,2.0,North,10.4,-,0.02,Rain,Rain,350,2013-03-06 11:15:00
6:35 AM,35.6,35.6,100,29.59,2.0,North,11.5,-,0.03,,Overcast,360,2013-03-06 11:35:00
6:55 AM,37.4,37.4,100,29.59,2.0,North,12.7,-,0.03,Snow,Light Snow,360,2013-03-06 11:55:00
7:15 AM,35.6,35.6,100,29.59,0.8,North,15.0,20.7,0.02,Snow,Snow,360,2013-03-06 12:15:00
7:35 AM,35.6,35.6,100,29.59,0.8,North,15.0,-,0.02,Snow,Light Snow,360,2013-03-06 12:35:00
8:15 AM,35.6,35.6,100,29.60,0.8,North,11.5,-,N/A,Snow,Light Snow,360,2013-03-06 13:15:00
8:35 AM,35.6,35.6,100,29.61,0.5,North,10.4,-,0.01,Snow,Light Snow,360,2013-03-06 13:35:00
8:55 AM,37.4,37.4,100,29.61,1.0,North,12.7,-,0.02,Snow,Light Snow,360,2013-03-06 13:55:00
9:15 AM,37.4,37.4,100,29.61,0.8,North,11.5,-,N/A,Snow,Light Snow,360,2013-03-06 14:15:00
9:35 AM,37.4,37.4,100,29.61,1.5,North,16.1,23.0,0.01,Snow,Light Snow,360,2013-03-06 14:35:00
10:15 AM,37.4,37.4,100,29.62,0.8,North,20.7,26.5,0.01,Snow,Light Snow,360,2013-03-06 15:15:00
10:35 AM,35.6,35.6,100,29.62,0.2,North,20.7,24.2,0.03,Snow,Snow,350,2013-03-06 15:35:00
10:55 AM,37.4,37.4,100,29.62,0.5,North,21.9,27.6,0.04,Snow,Snow,350,2013-03-06 15:55:00
11:15 AM,37.4,37.4,100,29.63,0.8,North,18.4,27.6,N/A,Snow,Light Snow,350,2013-03-06 16:15:00